www.pogodaiklimat.ru

Погода и климат >> Архив погоды >> Португалия >> Funchal (S.Catarina)


ПОГОДА в Funchal (S.Catarina)

  • Прогноз погоды в Funchal (S.Catarina)
  • Монитор погоды в Funchal (S.Catarina)
  • Климат города

АРХИВ ПОГОДЫ в Funchal (S.Catarina)

Время (UTC), дата Ветер
(напр.,м/с)
 
Видим.   Явления Облачность Т
(С)
Тd
(С)
f
(%)
Тe
(С)
Тes
(С)
Комфортность P
(гПа)
Po
(гПа)
Тmin
(С)
Tmax
(С)
R
(мм)
R24
(мм)
S
(см)
03 19.02 СВ 9 20 км 6/6 450 м
[Cu Sc]
+15.0 +9.7 71 +13 +13 1020.7 1013.7
06 19.02 СВ 9
{17}
20 км 8/8 450 м
[Cu Sc]
+15.1 +8.3 64 +13 +13 1020.8 1013.8 +14.1 3
09 19.02 С 6-10
{15}
20 км 8/8 450 м
[Cu Sc]
+14.9 +7.5 61 +13 +13 1021.5 1014.5
12 19.02 С 9 20 км 6/6 450 м
[Cu Sc]
+16.3 +8.3 59 +15 +15 1021.6 1014.7
15 19.02 СВ 7
{11}
20 км 9/9 450 м
[Cu Sc]
+16.0 +8.5 61 +15 +15 1020.6 1013.6
18 19.02 СВ 8
{13}
20 км 5/5 450 м
[Cu Sc]
+16.2 +8.8 62 +15 +15 1020.5 1013.6 +17.1
21 19.02 СВ 9 20 км 6/6 450 м
[Cu Sc]
+15.3 +8.0 62 +13 +13 1021.6 1014.6
00 20.02 С 8
{13}
20 км 4/4 450 м
[Cu Sc]
+15.2 +9.1 67 +13 +13 1021.0 1014.0
03 20.02 С 9-15
{15}
20 км 3/3 450 м
[Cu Sc]
+15.3 +9.0 66 +13 +13 1020.4 1013.4
06 20.02 СВ 9
{15}
20 км 3/3 420 м
[Cu Sc]
+15.3 +9.3 67 +13 +13 1019.9 1013.0 +14.9
09 20.02 СВ 9-16
{17}
20 км 3/3 450 м
[Cu Sc]
+16.0 +9.8 67 +14 +14 1020.7 1013.8
12 20.02 СВ 8
{15}
20 км 3/3 450 м
[Cu med, cong]
+17.7 +10.1 61 +17 +18 1021.1 1014.3
15 20.02 СВ 8-13
{16}
10 км в посл. час ливневой дождь 6/6 450 м
[Cu med, cong]
+16.2 +11.3 73 +15 +15 1019.6 1012.6
18 20.02 СВ 8
{13}
20 км 6/6 450 м
[Cu Sc]
+16.0 +9.0 63 +14 +14 1018.7 1011.8 +18.3 0.6
21 20.02 СВ 9-14
{16}
20 км 6/6 450 м
[Cu Sc]
+15.5 +8.1 61 +14 +14 1019.2 1012.2
00 21.02 С 7-11
{13}
20 км 6/6 450 м
[Cu Sc]
+15.0 +8.3 64 +13 +13 1018.6 1011.7 0.2
03 21.02 С 8-14
{16}
20 км 6/6 450 м
[Cu Sc]
+14.4 +9.5 72 +12 +12 1017.3 1010.3
06 21.02 СВ 8 20 км 6/6 450 м
[Cu Sc]
+15.4 +10.1 71 +14 +14 1016.3 1009.4 +14.2 0.5
09 21.02 СВ 6
{10}
20 км 8/8 480 м
[Cu Sc]
+15.5 +10.0 70 +14 +14 1016.7 1009.8
12 21.02 С 4-7
{7}
20 км 9/9 450 м
[Cu Sc]
+16.2 +10.0 67 +16 +16 1017.0 1010.1
15 21.02 С 1
{10}
20 км 9/9 450 м
[Cu Sc]
+17.0 +8.8 58 +18 +19 1014.8 1007.9
18 21.02 С 7
{13}
20 км 9/9 450 м
[Cu Sc]
+15.3 +9.8 70 +14 +14 1014.0 1007.1 +17.5
21 21.02 СВ 8 20 км 9/9 450 м
[Cu Sc]
+15.6 +9.0 65 +14 +14 1013.8 1006.9
09 22.02 СВ 4
{7}
20 км 9/9 450 м
[Cu Sc]
+15.4 +8.5 63 +14 +15 1011.6 1004.7
12 22.02 В 2 20 км 9/9 450 м
[Cu Sc]
+16.6 +8.6 59 +17 +18 1011.8 1005.0
15 22.02 20 км 10/6 450 м
[Cu Sc Ac As]
+15.9 +9.5 66 1009.5 1002.6
18 22.02 СЗ 2 20 км 9/6 480 м
[Cu Sc Ac As Ci fib]
+15.9 +9.5 66 +16 +16 1008.3 1001.5 +16.9
21 22.02 СЗ 2 20 км 9/6 480 м
[Cu Sc Ac As]
+15.3 +9.0 66 +15 +15 1008.3 1001.5
00 23.02 н/о н/о +15.2 +10.0 71 1007.0 1000.2
03 23.02 Ю 5
{9}
15 км 8/8 450 м
[Cu Sc]
+14.5 +10.1 75 +13 +13 1005.6 998.8
06 23.02 15 км 9/9 450 м
[Cu Sc]
+13.8 +10.6 81 1004.2 997.4 +13.0 0.1
09 23.02
{6}
20 км в посл. час туман {ливн. осадки} 9/4 480 м
[Cu med, cong Ac cuf Ci fib]
+15.0 +10.5 74 1004.3 997.4
12 23.02
{5}
20 км {ливн. осадки} 8/3 450 м
[Cu med, cong Ac cuf Ci fib]
+17.4 +10.6 64 1004.1 997.3 2
15 23.02
{5}
20 км 9/5 480 м
[Cu med, cong Ac trans Ci fib]
+18.0 +10.9 63 1002.4 995.7
18 23.02
{5}
20 км 8/6 450 м
[Cb calv Ac cuf Ci sp]
+16.9 +10.0 64 1002.0 995.3 +18.6 2
21 23.02 20 км 8/6 450 м
[Cb calv Ac cuf Ci sp]
+16.1 +10.4 69 1002.8 996.0
00 24.02 СЗ 2 15 км 8/5 450 м
[Cu Sc Ac cuf Ci fib]
+14.8 +9.6 71 +15 +15 1003.2 996.3 0.7
03 24.02 СЗ 3 20 км 6/4 450 м
[Cu med, cong Ac cuf Ci fib]
+14.3 +10.1 76 +13 +13 1002.7 995.8
06 24.02 З 3 20 км 6/4 450 м
[Cu med, cong Ac cuf Ci fib]
+14.9 +10.0 72 +14 +14 1002.9 996.0 +14.0 0.7
09 24.02 З 4
{6}
20 км 1/1 480 м
[Cu hum]
+16.4 +10.6 69 +16 +17 1003.7 996.9
12 24.02 ЮЗ 6 20 км 5/5 480 м
[Cu med, cong]
+18.0 +12.3 69 +17 +20 1004.4 997.7
15 24.02 ЮЗ 7 20 км 5/5 450 м
[Cu med, cong]
+18.6 +11.9 65 +19 +20 1003.2 996.4
18 24.02 ЮЗ 10 20 км 4/4 450 м
[Cu med, cong]
+17.4 +12.5 73 +16 +16 1003.0 996.2 +18.9
21 24.02 ЮЗ 8
{12}
20 км 3/3 450 м
[Cu med, cong]
+16.7 +12.3 75 +15 +15 1003.7 996.9
00 25.02 ЮЗ 12 20 км 4/4 450 м
[Cu med, cong]
+16.7 +13.1 79 +15 +15 1003.3 996.5
03 25.02 ЮЗ 13 15 км в посл. час ливневой дождь 5/5 450 м
[Cu med, cong]
+16.6 +13.7 83 +14 +14 1002.0 995.2
06 25.02 Ю 9-14
{14}
н/о н/о +17.0 +13.9 82 +16 +16 1000.5 993.8 +15.9 1
09 25.02 ЮЗ 13 15 км 8/8 360 м
[Cb calv Ci fib]
+17.2 +14.2 83 +15 +15 1000.3 993.6
12 25.02 ЮЗ 16 15 км 9/6 360 м
[Cb calv Ac trans Ci fib]
+17.9 +14.6 81 +16 +16 999.6 992.9 0.6
15 25.02 Ю 15 10 км в посл. час ливневой дождь 9/9 300 м
[Cb calv Ac trans Ci fib]
+17.2 +15.1 87 +15 +15 995.9 989.2
18 25.02 ЮЗ 7
{13}
10 км 9/5 360 м
[Cb calv Ac As Ci fib]
+17.1 +12.1 72 +16 +16 995.8 989.1 +18.1 14
21 25.02 В 6
{11}
15 км слабый ливневой дождь 9/6 360 м
[Cb calv Ac As Ci sp]
+15.0 +11.9 82 +13 +13 998.1 991.3

 

Местоположение метеостанции Funchal (S.Catarina) (Португалия): широта 32.68 долгота -16.76 высота над уровнем моря 49 м.

В архиве по умолчанию представлена погода в Funchal (S.Catarina) за последнюю неделю. Архивные данные за месяц целиком и за предыдущие месяцы, начиная с января 2011 года, Вы можете получить, выбрав интересующий диапазон дат из раскрывающегося списка и нажав кнопку "Ввод!".

Внимание! Время в таблицах - всемирное. Для получения местного времени необходимо прибавить поправку, которая в Funchal (S.Catarina) равна 0 ч.

Смотрите также архив погоды в соседних городах и на ближайших метеорологических станциях:

Погода в Funchal (Португалия) (14 км)
Погода в Porto Santo (Португалия) (58 км)
Погода в La Palma (Канарские Острова) (461 км)
Погода в Tenerife (Канарские Острова) (470 км)
Погода в Sta. Cruz De Tenerife (Канарские Острова) (473 км)
Погода в Tenerife-Guimar (Канарские Острова) (486 км)
Погода в Izana (Канарские Острова) (488 км)
Погода в Lanzarote (Канарские Острова) (513 км)
Погода в Reina Sofia Airport (Канарские Острова) (515 км)
Погода в La Gomera (Канарские Острова) (519 км)

Пояснения к столбцам:

Ветер - указаны скорость ветра в м/с - средняя за 10 мин, порывы в срок и между сроками (в фигурных скобках) и направление, откуда дует ветер: С - северный, СВ - северо-восточный, В - восточный, ЮВ - юго-восточный, Ю - южный, ЮЗ - юго-западный, З - западный, СЗ - северо-западный.
Видимость - горизонтальная дальность видимости в метрах или километрах. При видимости от 1 до 10 км при отсутствии осадков обычно наблюдается дымка, при ухудшении видимости до 1 км и менее - туман. В сухую погоду видимость может ухудшаться дымом, пылью или мглою.
Явления - указаны атмосферные явления, наблюдавшиеся в срок или в последний час перед сроком; фигурными скобками обозначены явления, наблюдавшиеся между сроками (за 1-3 часа до срока); квадратными скобками обозначены град или гололедные отложения с указанием их диаметра в мм.
Облачность - указаны через наклонную черту общая и нижняя облачность в баллах и высота нижней границы облаков в метрах; квадратными скобками обозначены формы облаков: Ci - перистые, Cs - перисто-слоистые, Cc - перисто-кучевые, Ac - высококучевые, As - высокослоистые, Sc - слоисто-кучевые, Ns - слоисто-дождевые, Cu - кучевые, Cb - кучево-дождевые. Подробнее классификацию облаков см. в Атласе облаков (PDF).
T - Температура воздуха - температура, измеренная на высоте 2 м над землей.
Td - Температура точки росы - температура, при понижении до которой содержащийся в воздухе водяной пар достигнет насыщения.
f - Относительная влажность воздуха - влажноcть воздуха, измеренная на высоте 2 м над землей.
Te - Эффективная температура - температура, которую ощущает одетый по сезону человек в тени. Характеристика душности погоды. При расчете учитывается влияние влажности воздуха и скорости ветра на теплоощущения человека.
Tes - Эффективная температура на солнце - температура, которую ощущает человек, с поправкой на солнечный нагрев. Характеристика знойности погоды. Зависит от высоты солнца над горизонтом, облачности и скорости ветра. Ночью, в пасмурную погоду, а также при ветре 12 м/с и более поправка равна нулю.
P - Атмосферное давление - приведенное к уровню моря атмосферное давление.
Po - Атмосферное давление - измеренное на уровне метеостанции атмосферное давление.
Tmin - Минимальная температура - минимум температуры воздуха на высоте 2 м над землей.
Tmax - Максимальная температура - максимум температуры воздуха на высоте 2 м над землей.
R - Количество осадков - Количество выпавших осадков за период времени, мм. При наведении курсора мыши на число - период времени, за который выпало указанное количество осадков.
R24 - Количество осадков - Количество выпавших осадков за 24 часа, мм.
S - Снежный покров - Высота снежного покрова, см. При наведении курсора мыши на число - состояние снежного покрова и степень покрытия местности в баллах.